Location: Hains Lake
(37.8540°N, 99.8578°W)
Time: 04:06:30
(UTC+00:00)

Transit 2A - Pass Details

Date: 20 April 2021
Orbit: 602 x 957 km, 66.7° (Epoch: 13 May)

Event Time Altitude Azimuth Distance (km) Brightness Sun altitude
Rises 23:15:30 0° 323° (NW) 2,896 9.5 23.5°
Reaches altitude 10° 23:17:48 10° 316° (NW) 2,015 8.9 23.1°
Maximum altitude 23:22:00 39° 247° (WSW) 989 8.1 22.2°
Drops below altitude 10° 23:26:31 10° 179° (S) 2,164 8.4 21.3°
Sets 23:29:05 0° 172° (S) 3,139 9.1 20.8°
